TimeCDT,TemperatureF,Dew PointF,Humidity,Sea Level PressureIn,VisibilityMPH,Wind Direction,Wind SpeedMPH,Gust SpeedMPH,PrecipitationIn,Events,Conditions,WindDirDegrees,DateUTC
12:12 AM,55.4,51.8,88,29.67,10.0,North,4.6,-,N/A,,Overcast,10,2013-05-22 05:12:00
12:32 AM,55.4,51.8,88,29.68,10.0,North,6.9,-,N/A,,Overcast,360,2013-05-22 05:32:00
12:53 AM,53.6,51.8,94,29.68,3.0,NNE,10.4,-,N/A,Rain,Light Rain,20,2013-05-22 05:53:00
1:12 AM,53.6,51.8,94,29.68,0.5,NNE,11.5,-,N/A,,Drizzle,20,2013-05-22 06:12:00
1:32 AM,53.6,51.8,94,29.68,1.2,North,9.2,-,N/A,,Light Drizzle,360,2013-05-22 06:32:00
1:53 AM,51.8,50.0,94,29.68,0.2,North,10.4,16.1,N/A,,Drizzle,360,2013-05-22 06:53:00
2:12 AM,51.8,50.0,94,29.68,0.5,North,11.5,-,N/A,,Drizzle,10,2013-05-22 07:12:00
2:32 AM,50.0,48.2,94,29.69,0.5,North,13.8,17.3,N/A,,Drizzle,10,2013-05-22 07:32:00
2:53 AM,48.2,48.2,100,29.69,0.2,North,12.7,-,N/A,Rain,Rain,360,2013-05-22 07:53:00
3:12 AM,48.2,48.2,100,29.69,0.2,North,12.7,-,N/A,,Drizzle,360,2013-05-22 08:12:00
3:32 AM,48.2,48.2,100,29.70,0.2,North,12.7,-,N/A,,Drizzle,360,2013-05-22 08:32:00
3:53 AM,48.2,46.4,93,29.70,0.5,NNW,12.7,-,N/A,Fog,Fog,340,2013-05-22 08:53:00
4:12 AM,46.4,46.4,100,29.70,7.0,North,11.5,-,N/A,,Light Drizzle,350,2013-05-22 09:12:00
4:32 AM,46.4,46.4,100,29.71,10.0,NNW,11.5,-,N/A,,Overcast,340,2013-05-22 09:32:00
4:52 AM,46.4,46.4,100,29.71,10.0,NNW,11.5,-,N/A,,Drizzle,340,2013-05-22 09:52:00
5:12 AM,46.4,46.4,100,29.71,10.0,NNW,11.5,-,N/A,,Drizzle,340,2013-05-22 10:12:00
5:33 AM,46.4,46.4,100,29.71,10.0,North,13.8,-,N/A,Rain,Light Rain,350,2013-05-22 10:33:00
5:52 AM,46.4,46.4,100,29.70,10.0,North,10.4,-,N/A,Rain,Light Rain,350,2013-05-22 10:52:00
6:12 AM,46.4,44.6,93,29.71,10.0,North,12.7,-,N/A,,Light Drizzle,350,2013-05-22 11:12:00
6:33 AM,46.4,44.6,93,29.71,5.0,NNW,16.1,-,N/A,,Drizzle,340,2013-05-22 11:33:00
6:52 AM,46.4,44.6,93,29.71,7.0,North,13.8,-,N/A,,Light Drizzle,350,2013-05-22 11:52:00
7:12 AM,46.4,44.6,93,29.72,7.0,North,13.8,-,N/A,,Drizzle,350,2013-05-22 12:12:00
7:33 AM,46.4,44.6,93,29.72,10.0,North,15.0,-,N/A,Rain,Light Rain,350,2013-05-22 12:33:00
7:52 AM,46.4,44.6,93,29.72,10.0,North,8.1,-,N/A,Rain,Light Rain,350,2013-05-22 12:52:00
8:12 AM,46.4,44.6,93,29.73,10.0,North,11.5,-,N/A,Rain,Light Rain,350,2013-05-22 13:12:00
8:33 AM,46.4,44.6,93,29.73,7.0,NNW,12.7,-,N/A,Rain,Light Rain,340,2013-05-22 13:33:00
8:52 AM,46.4,44.6,93,29.73,10.0,North,13.8,-,N/A,Rain,Light Rain,360,2013-05-22 13:52:00
9:12 AM,46.4,44.6,93,29.74,10.0,North,15.0,18.4,N/A,Rain,Light Rain,350,2013-05-22 14:12:00
9:33 AM,46.4,44.6,93,29.74,10.0,North,16.1,-,N/A,Rain,Light Rain,350,2013-05-22 14:33:00
9:52 AM,46.4,44.6,93,29.74,10.0,North,13.8,-,N/A,Rain,Light Rain,350,2013-05-22 14:52:00
10:12 AM,48.2,44.6,87,29.74,10.0,North,17.3,-,N/A,Rain,Light Rain,350,2013-05-22 15:12:00
10:33 AM,48.2,44.6,87,29.75,10.0,NNW,16.1,-,N/A,Rain,Light Rain,340,2013-05-22 15:33:00
10:52 AM,48.2,46.4,93,29.76,10.0,NNW,15.0,-,N/A,Rain,Light Rain,340,2013-05-22 15:52:00
11:12 AM,48.2,46.4,93,29.76,10.0,NNW,13.8,-,N/A,Rain,Light Rain,340,2013-05-22 16:12:00
11:33 AM,48.2,46.4,93,29.76,10.0,North,11.5,17.3,N/A,Rain,Light Rain,350,2013-05-22 16:33:00
11:52 AM,48.2,46.4,93,29.77,10.0,North,16.1,-,N/A,Rain,Light Rain,350,2013-05-22 16:52:00
12:12 PM,48.2,46.4,93,29.77,10.0,North,15.0,-,N/A,Rain,Light Rain,350,2013-05-22 17:12:00
12:33 PM,48.2,46.4,93,29.78,10.0,NNW,10.4,-,N/A,Rain,Light Rain,340,2013-05-22 17:33:00
12:52 PM,48.2,46.4,93,29.78,10.0,NNW,13.8,-,N/A,Rain,Light Rain,330,2013-05-22 17:52:00
1:12 PM,48.2,46.4,93,29.78,10.0,North,13.8,-,N/A,Rain,Light Rain,350,2013-05-22 18:12:00
1:33 PM,50.0,46.4,87,29.79,10.0,NNW,15.0,-,N/A,,Overcast,340,2013-05-22 18:33:00
1:52 PM,50.0,46.4,87,29.79,10.0,NNW,15.0,-,N/A,,Light Drizzle,340,2013-05-22 18:52:00
2:12 PM,50.0,48.2,94,29.80,10.0,NNW,16.1,-,N/A,Rain,Light Rain,340,2013-05-22 19:12:00
2:33 PM,51.8,48.2,88,29.80,10.0,NNW,16.1,-,N/A,,Light Drizzle,340,2013-05-22 19:33:00
2:52 PM,51.8,48.2,88,29.80,10.0,North,17.3,23.0,N/A,Rain,Light Rain,350,2013-05-22 19:52:00
3:12 PM,51.8,48.2,88,29.81,10.0,NNW,15.0,-,N/A,,Light Drizzle,340,2013-05-22 20:12:00
3:33 PM,51.8,48.2,88,29.81,10.0,North,16.1,-,N/A,Rain,Light Rain,350,2013-05-22 20:33:00
3:52 PM,51.8,48.2,88,29.82,10.0,North,19.6,-,N/A,Rain,Light Rain,350,2013-05-22 20:52:00
4:12 PM,51.8,48.2,88,29.82,7.0,North,17.3,-,N/A,Rain,Light Rain,350,2013-05-22 21:12:00
4:33 PM,51.8,48.2,88,29.82,4.0,North,17.3,23.0,N/A,,Light Drizzle,350,2013-05-22 21:33:00
4:52 PM,51.8,50.0,94,29.83,3.0,North,16.1,-,N/A,,Light Drizzle,350,2013-05-22 21:52:00
5:12 PM,51.8,48.2,88,29.84,7.0,North,16.1,24.2,N/A,,Light Drizzle,350,2013-05-22 22:12:00
5:33 PM,51.8,48.2,88,29.85,10.0,North,17.3,21.9,N/A,,Overcast,360,2013-05-22 22:33:00
5:52 PM,51.8,48.2,88,29.85,10.0,North,18.4,23.0,N/A,,Overcast,350,2013-05-22 22:52:00
6:12 PM,51.8,48.2,88,29.85,10.0,North,17.3,20.7,N/A,,Overcast,360,2013-05-22 23:12:00
6:33 PM,51.8,48.2,88,29.86,10.0,North,19.6,-,N/A,,Overcast,350,2013-05-22 23:33:00
6:52 PM,51.8,48.2,88,29.87,10.0,North,18.4,-,N/A,,Overcast,360,2013-05-22 23:52:00
7:12 PM,50.0,48.2,94,29.88,10.0,North,19.6,25.3,N/A,,Overcast,360,2013-05-23 00:12:00
7:33 PM,50.0,48.2,94,29.89,10.0,North,16.1,21.9,N/A,,Overcast,360,2013-05-23 00:33:00
7:52 PM,50.0,48.2,94,29.90,10.0,North,13.8,-,N/A,,Overcast,360,2013-05-23 00:52:00
8:12 PM,50.0,48.2,94,29.90,10.0,North,16.1,21.9,N/A,,Overcast,360,2013-05-23 01:12:00
8:33 PM,50.0,46.4,87,29.92,10.0,North,18.4,-,N/A,,Overcast,10,2013-05-23 01:33:00
8:52 PM,50.0,46.4,87,29.92,10.0,North,17.3,24.2,N/A,,Overcast,10,2013-05-23 01:52:00
9:12 PM,48.2,46.4,93,29.93,10.0,North,17.3,23.0,N/A,,Overcast,10,2013-05-23 02:12:00
9:33 PM,50.0,46.4,87,29.94,10.0,North,13.8,21.9,N/A,,Overcast,10,2013-05-23 02:33:00
9:52 PM,50.0,46.4,87,29.95,10.0,North,12.7,-,N/A,,Overcast,360,2013-05-23 02:52:00
10:12 PM,50.0,46.4,87,29.96,10.0,North,15.0,18.4,N/A,,Overcast,360,2013-05-23 03:12:00
10:33 PM,48.2,46.4,93,29.97,10.0,North,15.0,-,N/A,,Overcast,360,2013-05-23 03:33:00
10:52 PM,50.0,46.4,87,29.97,10.0,North,15.0,-,N/A,,Overcast,10,2013-05-23 03:52:00
11:12 PM,50.0,46.4,87,29.98,10.0,NNE,17.3,21.9,N/A,,Overcast,20,2013-05-23 04:12:00
11:33 PM,50.0,46.4,87,29.99,10.0,NNE,15.0,24.2,N/A,,Overcast,20,2013-05-23 04:33:00
11:52 PM,50.0,46.4,87,29.99,10.0,NNE,16.1,21.9,N/A,,Overcast,20,2013-05-23 04:52:00